CZ-6A DEB, 61408

Orbit data source: Space-Track

CZ-6A DEB, 61408 is space debris in LEO originally from a launch on Tue, 06 Aug 2024 UTC launched from the Taiyaun Space Center, China (TSC). Debris objects in space refer to the collection of defunct objects orbiting the Earth. Examples of debris include non-operational satellites, rocket bodies, and fragments generated from explosions, collisions, or faulty payload assembly.

Loading next visibility...
Identifier
61408, 2024-140XZ
Orbit
LEO
Country
Flag of CNCN / PRC
Related business
Manufacturer
SAST
Mission
Spacecraft
Bus & Motor
Unknown
Mass
Unknown
Launch date (UTC)
2024-08-06 (1 year ago)
Launch vehicle
Unknown
Launch site
Taiyaun Space Center, China (TSC)
Object type
Payload
Rocket body
Debris
Shape & HBR
Unknown shape, 0.1 m
Radar Cross Section
Small (<0.1 m²)

Expand to show TLE details & history
Last TLE update: 1 day ago

TLE from 1 day ago
0 CZ-6A DEB
1 61408U 24140XZ  25312.69618696  .00008456  00000-0  31516-2 0  9995
2 61408  89.0208 299.9744 0019753 127.4556 232.8441 14.31793640 60645
Epoch: 2025-11-08T16:42Z
TLE epoch observation values (Epoch: 2025-11-08T16:42:30.553Z)
Latitude
-0.00004°
Longitude
1.225°
Altitude
797.378 km
Speed
7.45 km/s
True Right ascension
19h 59m 53s
True Declination
0° 00' 00"
Sunlit
Object was in daylight at epoch
Visualization orbit readout
Latitude
Unknown
Longitude
Unknown
Altitude
Unknown
Speed
Unknown
Apparent Right ascension
Unknown
Apparent Declination
Unknown
Sunlit
N/A
Visualization observer readout
Local Sidereal Time
19:51:17
Azimuth
Unknown
Elevation
Unknown
Doppler factor
Unknown
Orbital elements
Apogee altitude
796.821 km
Perigee altitude
768.531 km
Semi-major axis
7,160.813 km
Eccentricity
0.00198
Inclination
89.0208°
RAAN
299.9744°
Arg. of periapsis
127.4556°
True anomaly
232.66397°
Mean anomaly
232.8441°
Eccentric anomaly
232.75401°
Mean motion
3.58179 °/min
Orbital period
100.51 mins
BSTAR
0.0031516
Loading maneuver chart data...
Computing Atmospheric mass density...

Documentation

Showing up to 5 results
|